Find Starlink 33534

NORAD ID: 63499 Int'l Des: 2025-071 Owner: SPXS Country: US Constellation: starlink operational
LEOCIRCULAR

リアルタイム位置

3D地球を読み込み中...

Starlink 33534について

説明を読み込み中...

次回通過

Passes for default location (London). Set your location on the main map for personalized predictions.

高度履歴

Loading altitude history...

軌道要素

1 63499U 25071G 26124.55894846 .00029553 00000-0 95962-3 0 9998
2 63499 53.1603 240.4216 0000483 106.0920 254.0135 15.31723795 61306
Epoch: May 4, 2026 • Age: 6 hours

現在のステータス

高度 487.3 km
速度 7.62 km/s
衛星直下点 -47.69°S, 30.85°E
打ち上げ日 Apr 7, 2025
運用期間 1 years
タイプ internet

技術仕様

分類 Payload
質量 575.00 kg
乾燥質量 530.00 kg
総質量 575.00 kg
長さ 0.30 m
直径 4.10 m
スパン 29.00 m
形状 Box + pan
製造者 SPXS
バスタイプ Starlink V2MO
フェーズステータス In Orbit
所有者/国 SPXS/US

Most Searched